Dothan, AL

1:46 PM CDT on May 25, 2017 (GMT -0500)
Dothan Regional

Weather History for KDHN - February, 2014

Change the Weather History Date:

Sunday, February 16, 2014

  Actual Average Record
Temperature  
Mean Temperature 51 °F 53 °F  
Max Temperature 67 °F 65 °F 80 °F (1954)
Min Temperature 34 °F 41 °F 23 °F (1958)
Degree Days  
Heating Degree Days 14 12  
Month to date heating degree days 227 216  
Since 1 July heating degree days 1564 1432  
Moisture  
Dew Point 34 °F    
Average Humidity 58    
Maximum Humidity 89    
Minimum Humidity 27    
Precipitation  
Precipitation 0.00 in 0.22 in 1.45 in (1944)
Month to date precipitation 3.00 2.62  
Year to date precipitation 5.93 7.25  
Sea Level Pressure  
Sea Level Pressure 30.19 in    
Wind  
Wind Speed 3 mph (WSW)    
Max Wind Speed 9 mph    
Max Gust Speed -    
Visibility 10 miles    
Events      
T = Trace of Precipitation, MM = Missing Value Source: NWS Daily Summary

Daily Weather History Graph

Daily Weather History Graph

Search for Another Location

Airport or City:

Trip Planner

Search our weather history database for the weather conditions in past years. The results will help you decide how hot, cold, wet, or windy it might be!

Date:

Astronomy

Feb. 16, 2014 Rise Set
Actual Time 6:22 AM CST 5:29 PM CST
Civil Twilight 5:57 AM CST 5:54 PM CST
Nautical Twilight 5:29 AM CST 6:23 PM CST
Astronomical Twilight 5:00 AM CST 6:51 PM CST
Moon 7:15 PM CST (2/16) 7:00 AM CST (2/16)
Length of Visible Light 11h 57m
Length of Day
11h 07m
Full, 97% of the Moon is Illuminated
Feb 16
Full
Feb 22
Last Quarter
Mar 1
New
Mar 8
First Quarter
Mar 16
Full

Hourly Weather History & Observations

Time (CST) Temp. Windchill Dew Point Humidity Pressure Visibility Wind Dir Wind Speed Gust Speed Precip Events Conditions
12:53 AM 37.0 °F - 30.9 °F 79% 30.17 in 10.0 mi Calm Calm - N/A   Clear
1:53 AM 36.0 °F 32.1 °F 30.9 °F 82% 30.16 in 10.0 mi WSW 4.6 mph - N/A   Clear
2:53 AM 37.0 °F - 30.9 °F 79% 30.16 in 10.0 mi Calm Calm - N/A   Clear
3:53 AM 34.0 °F - 30.9 °F 89% 30.18 in 10.0 mi Calm Calm - N/A   Clear
4:53 AM 34.0 °F 28.8 °F 30.0 °F 85% 30.20 in 10.0 mi WNW 5.8 mph - N/A   Clear
5:53 AM 35.1 °F - 28.9 °F 78% 30.20 in 10.0 mi Calm Calm - N/A   Clear
6:53 AM 35.1 °F - 30.9 °F 85% 30.21 in 10.0 mi Calm Calm - N/A   Clear
7:53 AM 43.0 °F - 36.0 °F 76% 30.23 in 10.0 mi Calm Calm - N/A   Clear
8:53 AM 51.1 °F - 33.1 °F 50% 30.24 in 10.0 mi West 5.8 mph - N/A   Clear
9:53 AM 55.9 °F - 33.1 °F 42% 30.24 in 10.0 mi WNW 6.9 mph - N/A   Clear
10:53 AM 59.0 °F - 33.1 °F 38% 30.23 in 10.0 mi West 8.1 mph - N/A   Partly Cloudy
11:53 AM 63.0 °F - 33.1 °F 33% 30.20 in 10.0 mi WNW 9.2 mph - N/A   Clear
12:53 PM 64.0 °F - 33.1 °F 31% 30.17 in 10.0 mi Calm Calm - N/A   Clear
1:53 PM 64.9 °F - 30.9 °F 28% 30.16 in 10.0 mi SW 5.8 mph - N/A   Clear
2:53 PM 66.9 °F - 32.0 °F 27% 30.15 in 10.0 mi WSW 8.1 mph - N/A   Clear
3:53 PM 66.0 °F - 32.0 °F 28% 30.15 in 10.0 mi SW 4.6 mph - N/A   Clear
4:53 PM 64.9 °F - 33.1 °F 31% 30.16 in 10.0 mi SW 5.8 mph - N/A   Clear
5:53 PM 61.0 °F - 35.1 °F 38% 30.18 in 10.0 mi SSW 3.5 mph - N/A   Clear
6:53 PM 57.0 °F - 37.0 °F 47% 30.19 in 10.0 mi SW 4.6 mph - N/A   Clear
7:53 PM 53.1 °F - 39.0 °F 59% 30.19 in 10.0 mi Calm Calm - N/A   Clear
8:53 PM 52.0 °F - 37.0 °F 57% 30.20 in 10.0 mi SSW 8.1 mph - N/A   Clear
9:53 PM 51.1 °F - 41.0 °F 68% 30.22 in 10.0 mi SW 6.9 mph - N/A   Clear
10:53 PM 48.9 °F - 43.0 °F 80% 30.19 in 10.0 mi SSW 6.9 mph - N/A   Clear
11:53 PM 48.0 °F - 44.1 °F 86% 30.19 in 10.0 mi SW 6.9 mph - N/A   Clear